PACCTY-2 Weather Reports


time (UTC)temp
C
wind
direction
speed
KPH
gust
KPH
rain 1hr
cm
rain 24hr
cm
rain mn
cm
humidity
%
barometer
mb
20260505065702 12 250 16.1 24.1 0.00 0.00 0.00
20260505064700 12 247 14.5 22.5 0.00 0.00 0.00
20260505064159 12 245 16.1 19.3 0.00 0.00 0.00
20260505063658 12 224 14.5 17.7 0.00 0.00 0.00
20260505063158 12 228 11.3 19.3 0.00 0.00 0.00
20260505062656 12 250 14.5 19.3 0.00 0.00 0.00
20260505061654 12 259 12.9 22.5 0.00 0.00 0.00
20260505060653 12 242 14.5 22.5 0.00 0.00 0.00
20260505052645 12 212 11.3 20.9 0.00 0.00 0.00
20260505052145 12 232 12.9 20.9 0.00 0.00 0.00
20260505051642 12 232 12.9 20.9 0.00 0.00 0.00
20260505051141 12 240 16.1 24.1 0.00 0.00 0.00
20260505041630 13 245 12.9 16.1 0.00 0.00 0.00
20260505041130 13 235 8.0 16.1 0.00 0.00 0.00
20260505040127 13 239 11.3 20.9 0.00 0.00 0.00
20260505035125 13 242 12.9 19.3 0.00 0.00 0.00
20260505031618 13 210 14.5 19.3 0.00 0.00 0.00
20260505031118 13 225 12.9 19.3 0.00 0.00 0.00
20260505030616 13 225 12.9 19.3 0.00 0.00 0.00
20260505025616 13 239 11.3 24.1 0.00 0.00 0.00
20260505025114 13 229 14.5 24.1 0.00 0.00 0.00
20260505024612 13 226 17.7 22.5 0.00 0.00 0.00
20260505023109 13 221 14.5 20.9 0.00 0.00 0.00
20260505022608 13 232 14.5 24.1 0.00 0.00 0.00
20260505021606 13 233 16.1 24.1 0.00 0.00 0.00
20260505021105 13 224 14.5 22.5 0.00 0.00 0.00
20260505020604 13 240 14.5 19.3 0.00 0.00 0.00
20260505015602 13 245 12.9 29.0 0.00 0.00 0.00
20260505015101 13 233 17.7 29.0 0.00 0.00 0.00
20260505014059 13 257 22.5 32.2 0.00 0.00 0.00
20260505013559 13 249 24.1 32.2 0.00 0.00 0.00
20260505011053 15 249 20.9 32.2 0.00 0.00 0.00
20260505010052 15 239 24.1 29.0 0.00 0.00 0.00
20260505005050 15 231 20.9 30.6 0.00 0.00 0.00
20260505004048 15 246 20.9 30.6 0.00 0.00 0.00
20260505001542 15 240 25.7 37.0 0.00 0.00 0.00
20260505000540 15 238 25.7 37.0 0.00 0.00 0.00
20260504235037 15 246 25.7 37.0 0.00 0.00 0.00
20260504233034 15 250 27.4 40.2 0.00 0.00 0.00
20260504225025 16 253 24.1 35.4 0.00 0.00 0.00
20260504223522 16 236 25.7 35.4 0.00 0.00 0.00
20260504221518 16 247 22.5 33.8 0.00 0.00 0.00
20260504220016 16 252 22.5 32.2 0.00 0.00 0.00
20260504215013 16 247 24.1 35.4 0.00 0.00 0.00
20260504214512 16 238 20.9 35.4 0.00 0.00 0.00
20260504214012 16 243 22.5 33.8 0.00 0.00 0.00
20260504212508 15 254 22.5 32.2 0.00 0.00 0.00
20260504212007 15 243 22.5 32.2 0.00 0.00 0.00
20260504211507 15 246 24.1 32.2 0.00 0.00 0.00
20260504211004 15 242 24.1 32.2 0.00 0.00 0.00
20260504210504 15 242 20.9 30.6 0.00 0.00 0.00
20260504205504 15 245 22.5 27.4 0.00 0.00 0.00
20260504203459 15 243 20.9 27.4 0.00 0.00 0.00
20260504202958 15 252 20.9 30.6 0.00 0.00 0.00
20260504201453 15 242 22.5 30.6 0.00 0.00 0.00
20260504195953 15 242 20.9 30.6 0.00 0.00 0.00
20260504194950 14 245 17.7 30.6 0.00 0.00 0.00
20260504194448 14 246 24.1 29.0 0.00 0.00 0.00
20260504193948 14 257 24.1 30.6 0.00 0.00 0.00
20260504193446 14 238 19.3 30.6 0.00 0.00 0.00
20260504192944 14 239 22.5 30.6 0.00 0.00 0.00
20260504192444 14 242 24.1 37.0 0.00 0.00 0.00
20260504191942 14 250 19.3 37.0 0.00 0.00 0.00
20260504191441 14 226 14.5 37.0 0.00 0.00 0.00
20260504190439 13 243 30.6 37.0 0.00 0.00 0.00
20260504185437 13 236 20.9 30.6 0.00 0.00 0.00
20260504184938 13 247 19.3 30.6 0.00 0.00 0.00
20260504182932 13 235 29.0 33.8 0.00 0.00 0.00
20260504182432 13 243 22.5 33.8 0.00 0.00 0.00
20260504181430 13 239 19.3 32.2 0.00 0.00 0.00
20260504180928 13 235 20.9 32.2 0.00 0.00 0.00
20260504180427 13 233 17.7 30.6 0.00 0.00 0.00
20260504175427 13 240 20.9 33.8 0.00 0.00 0.00
20260504174925 13 190 24.1 33.8 0.00 0.00 0.00
20260504174423 13 238 24.1 33.8 0.00 0.00 0.00
20260504173923 13 236 24.1 33.8 0.00 0.00 0.00
20260504173421 13 238 17.7 33.8 0.00 0.00 0.00
20260504172920 13 243 16.1 33.8 0.00 0.00 0.00
20260504172420 13 242 20.9 32.2 0.00 0.00 0.00
20260504171418 13 200 24.1 35.4 0.00 0.00 0.00
20260504170415 13 239 16.1 30.6 0.00 0.00 0.00
20260504160403 12 242 16.1 27.4 0.00 0.00 0.00
20260504150853 12 231 17.7 24.1 0.00 0.00 0.00
20260504140841 12 229 6.4 25.7 0.00 0.00 0.00
20260504120316 11 228 14.5 30.6 0.00 0.03 0.00
20260504100252 11 218 20.9 32.2 0.00 0.03 0.00
20260504081231 11 250 20.9 35.4 0.00 0.03 0.00